• în România
  • Lista ţărilor
  • Pe 7 zile
  • Temperatura apei
  • Hartă satelitară
  • Meteo pe hartă
  • Widget-uri
  • user-avatar
    Intrare

    Meteo pe oră la Winchester

    Astăzi, 22 Septembrie, Sâmbătă

    Timp Temperatura Precipitaţii Vânt Presiune Umiditate
    00:00 +10°C° 0 mm 4 m/s 759 mmHg 82%
    01:00 +10°C° 0 mm 4 m/s 759 mmHg 82%
    02:00 +10°C° 0 mm 4 m/s 759 mmHg 82%
    03:00 +10°C° 0 mm 4 m/s 759 mmHg 81%
    04:00 +11°C° 0.1 mm 4 m/s 759 mmHg 81%
    05:00 +11°C° 0.1 mm 4 m/s 759 mmHg 82%
    06:00 +11°C° 0.1 mm 4 m/s 759 mmHg 82%
    07:00 +11°C° 0.1 mm 4 m/s 759 mmHg 80%
    08:00 +12°C° 0.1 mm 4 m/s 759 mmHg 78%
    09:00 +12°C° 0.1 mm 4 m/s 759 mmHg 75%
    10:00 +12°C° 0.5 mm 3 m/s 759 mmHg 78%
    11:00 +12°C° 0.5 mm 3 m/s 759 mmHg 80%
    12:00 +13°C° 0.5 mm 2 m/s 759 mmHg 82%
    13:00 +11°C° 1.2 mm 3 m/s 758 mmHg 85%
    14:00 +11°C° 1.2 mm 3 m/s 757 mmHg 88%
    15:00 +11°C° 1.2 mm 3 m/s 756 mmHg 91%
    16:00 +11°C° 1 mm 4 m/s 756 mmHg 92%
    17:00 +10°C° 1 mm 5 m/s 755 mmHg 92%
    18:00 +10°C° 1 mm 6 m/s 754 mmHg 93%
    19:00 +10°C° 0.6 mm 5 m/s 754 mmHg 93%
    20:00 +10°C° 0.6 mm 5 m/s 755 mmHg 93%
    21:00 +10°C° 0.6 mm 5 m/s 755 mmHg 93%
    22:00 +11°C° 0.1 mm 4 m/s 755 mmHg 93%
    23:00 +11°C° 0.1 mm 4 m/s 755 mmHg 93%

    Mâine, 23 Septembrie, Duminică

    Timp Temperatura Precipitaţii Vânt Presiune Umiditate
    00:00 +11°C° 0.1 mm 4 m/s 755 mmHg 93%
    01:00 +11°C° 0 mm 4 m/s 755 mmHg 93%
    02:00 +11°C° 0 mm 4 m/s 755 mmHg 93%
    03:00 +11°C° 0 mm 4 m/s 755 mmHg 92%
    04:00 +10°C° 0.8 mm 4 m/s 754 mmHg 93%
    05:00 +10°C° 0.8 mm 4 m/s 754 mmHg 93%
    06:00 +10°C° 0.8 mm 4 m/s 754 mmHg 93%
    07:00 +9°C° 2.5 mm 5 m/s 753 mmHg 93%
    08:00 +9°C° 2.5 mm 6 m/s 753 mmHg 93%
    09:00 +8°C° 2.5 mm 7 m/s 753 mmHg 93%
    10:00 +7°C° 2.3 mm 8 m/s 754 mmHg 92%
    11:00 +6°C° 2.3 mm 8 m/s 754 mmHg 90%
    12:00 +6°C° 2.3 mm 9 m/s 755 mmHg 89%
    13:00 +7°C° 0.1 mm 8 m/s 756 mmHg 84%
    14:00 +7°C° 0.1 mm 8 m/s 758 mmHg 78%
    15:00 +9°C° 0.1 mm 8 m/s 759 mmHg 73%
    16:00 +9°C° 0 mm 7 m/s 760 mmHg 74%
    17:00 +8°C° 0 mm 6 m/s 761 mmHg 75%
    18:00 +8°C° 0 mm 5 m/s 762 mmHg 76%
    19:00 +7°C° 0 mm 4 m/s 763 mmHg 79%
    20:00 +7°C° 0 mm 4 m/s 764 mmHg 83%
    21:00 +6°C° 0 mm 4 m/s 765 mmHg 86%
    22:00 +6°C° 0 mm 4 m/s 766 mmHg 88%
    23:00 +7°C° 0 mm 3 m/s 767 mmHg 89%

    Poimâine, 24 Septembrie, Luni

    Timp Temperatura Precipitaţii Vânt Presiune Umiditate
    00:00 +5°C° 0 mm 3 m/s 767 mmHg 91%
    01:00 +5°C° 0 mm 3 m/s 768 mmHg 91%
    02:00 +5°C° 0 mm 3 m/s 768 mmHg 91%
    03:00 +5°C° 0 mm 3 m/s 769 mmHg 92%
    04:00 +4°C° 0 mm 3 m/s 769 mmHg 92%
    05:00 +4°C° 0 mm 3 m/s 770 mmHg 92%
    06:00 +4°C° 0 mm 3 m/s 770 mmHg 93%
    07:00 +7°C° 0 mm 3 m/s 771 mmHg 85%
    08:00 +8°C° 0 mm 4 m/s 771 mmHg 77%
    09:00 +10°C° 0 mm 4 m/s 772 mmHg 70%
    10:00 +11°C° 0 mm 4 m/s 772 mmHg 64%
    11:00 +12°C° 0 mm 4 m/s 772 mmHg 58%
    12:00 +14°C° 0 mm 4 m/s 772 mmHg 52%
    13:00 +14°C° 0 mm 4 m/s 772 mmHg 51%
    14:00 +14°C° 0 mm 4 m/s 772 mmHg 50%
    15:00 +14°C° 0 mm 4 m/s 772 mmHg 49%
    16:00 +12°C° 0 mm 3 m/s 772 mmHg 53%
    17:00 +11°C° 0 mm 3 m/s 772 mmHg 58%
    18:00 +10°C° 0 mm 3 m/s 772 mmHg 63%
    19:00 +9°C° 0 mm 3 m/s 773 mmHg 64%
    20:00 +8°C° 0 mm 3 m/s 773 mmHg 65%
    21:00 +8°C° 0 mm 3 m/s 773 mmHg 66%
    22:00 +7°C° 0 mm 3 m/s 773 mmHg 67%
    23:00 +7°C° 0 mm 3 m/s 773 mmHg 69%

    25 Septembrie, Marţi

    Timp Temperatura Precipitaţii Vânt Presiune Umiditate
    00:00 +7°C° 0 mm 2 m/s 773 mmHg 70%
    01:00 +6°C° 0 mm 2 m/s 773 mmHg 71%
    02:00 +6°C° 0 mm 2 m/s 773 mmHg 73%
    03:00 +6°C° 0 mm 2 m/s 773 mmHg 74%
    04:00 +5°C° 0 mm 2 m/s 773 mmHg 74%
    05:00 +5°C° 0 mm 2 m/s 772 mmHg 74%
    06:00 +5°C° 0 mm 2 m/s 772 mmHg 74%
    07:00 +7°C° 0 mm 2 m/s 772 mmHg 68%
    08:00 +9°C° 0 mm 2 m/s 773 mmHg 62%
    09:00 +12°C° 0 mm 2 m/s 773 mmHg 56%
    10:00 +13°C° 0 mm 2 m/s 772 mmHg 53%
    11:00 +14°C° 0 mm 2 m/s 772 mmHg 50%
    12:00 +15°C° 0 mm 2 m/s 772 mmHg 46%
    13:00 +16°C° 0 mm 2 m/s 771 mmHg 46%
    14:00 +16°C° 0 mm 2 m/s 771 mmHg 45%
    15:00 +16°C° 0 mm 2 m/s 770 mmHg 45%
    16:00 +15°C° 0 mm 2 m/s 770 mmHg 51%
    17:00 +13°C° 0 mm 2 m/s 770 mmHg 57%
    18:00 +12°C° 0 mm 2 m/s 769 mmHg 63%
    19:00 +10°C° 0 mm 2 m/s 769 mmHg 68%
    20:00 +10°C° 0 mm 2 m/s 770 mmHg 72%
    21:00 +9°C° 0 mm 2 m/s 770 mmHg 76%
    22:00 +9°C° 0 mm 2 m/s 770 mmHg 79%
    23:00 +8°C° 0 mm 2 m/s 769 mmHg 81%

    26 Septembrie, Miercuri

    Timp Temperatura Precipitaţii Vânt Presiune Umiditate
    00:00 +8°C° 0 mm 2 m/s 769 mmHg 84%
    01:00 +8°C° 0 mm 2 m/s 769 mmHg 85%
    02:00 +8°C° 0 mm 2 m/s 769 mmHg 87%
    03:00 +8°C° 0 mm 2 m/s 769 mmHg 88%
    04:00 +8°C° 0 mm 2 m/s 768 mmHg 89%
    05:00 +8°C° 0 mm 2 m/s 768 mmHg 89%
    06:00 +8°C° 0 mm 2 m/s 768 mmHg 90%
    07:00 +10°C° 0 mm 2 m/s 768 mmHg 82%
    08:00 +13°C° 0 mm 2 m/s 768 mmHg 75%
    09:00 +15°C° 0 mm 2 m/s 768 mmHg 68%
    10:00 +16°C° 0 mm 2 m/s 768 mmHg 62%
    11:00 +17°C° 0 mm 3 m/s 767 mmHg 57%
    12:00 +18°C° 0 mm 3 m/s 767 mmHg 51%
    13:00 +18°C° 0 mm 3 m/s 767 mmHg 51%
    14:00 +19°C° 0 mm 3 m/s 766 mmHg 50%
    15:00 +19°C° 0 mm 3 m/s 766 mmHg 50%
    16:00 +17°C° 0 mm 2 m/s 765 mmHg 56%
    17:00 +15°C° 0 mm 2 m/s 765 mmHg 63%
    18:00 +13°C° 0 mm 2 m/s 765 mmHg 69%
    19:00 +12°C° 0 mm 2 m/s 765 mmHg 72%
    20:00 +12°C° 0 mm 1 m/s 765 mmHg 76%
    21:00 +11°C° 0 mm 1 m/s 765 mmHg 79%
    22:00 +10°C° 0 mm 1 m/s 765 mmHg 80%
    23:00 +10°C° 0 mm 1 m/s 765 mmHg 81%

    27 Septembrie, Joi

    Timp Temperatura Precipitaţii Vânt Presiune Umiditate
    00:00 +10°C° 0 mm 1 m/s 764 mmHg 83%
    01:00 +9°C° 0 mm 2 m/s 764 mmHg 84%
    02:00 +8°C° 0 mm 2 m/s 764 mmHg 85%
    03:00 +8°C° 0 mm 2 m/s 764 mmHg 86%
    04:00 +8°C° 0 mm 2 m/s 764 mmHg 88%
    05:00 +8°C° 0 mm 2 m/s 764 mmHg 90%
    06:00 +8°C° 0 mm 2 m/s 764 mmHg 91%
    07:00 +10°C° 0 mm 3 m/s 764 mmHg 85%
    08:00 +12°C° 0 mm 3 m/s 764 mmHg 78%
    09:00 +14°C° 0 mm 4 m/s 764 mmHg 72%
    10:00 +17°C° 0 mm 4 m/s 764 mmHg 70%
    11:00 +19°C° 0 mm 4 m/s 764 mmHg 69%
    12:00 +21°C° 0 mm 5 m/s 764 mmHg 67%
    13:00 +20°C° 0 mm 5 m/s 764 mmHg 70%
    14:00 +20°C° 0 mm 5 m/s 764 mmHg 73%
    15:00 +19°C° 0 mm 4 m/s 765 mmHg 76%
    16:00 +17°C° 0 mm 4 m/s 765 mmHg 75%
    17:00 +15°C° 0 mm 4 m/s 765 mmHg 75%
    18:00 +13°C° 0 mm 4 m/s 766 mmHg 74%
    19:00 +13°C° 0 mm 4 m/s 766 mmHg 76%
    20:00 +12°C° 0 mm 4 m/s 767 mmHg 77%
    21:00 +11°C° 0 mm 4 m/s 767 mmHg 78%
    22:00 +10°C° 0 mm 4 m/s 767 mmHg 80%
    23:00 +8°C° 0 mm 4 m/s 768 mmHg 82%
    Arată mai mult